Weather History for KCRS - May, 2013

Change the Weather History Date:

Thursday, May 23, 2013

  Actual Average (KACT) Record (KACT)
Temperature  
Mean Temperature 78 °F 76 °F  
Max Temperature 87 °F 87 °F 98 °F (1996)
Min Temperature 71 °F 66 °F 54 °F (2001)
Degree Days  
Heating Degree Days 0 0  
Month to date heating degree days 4  
Since 1 July heating degree days 2140  
Cooling Degree Days 14 11  
Month to date cooling degree days 198  
Year to date cooling degree days 352  
Growing Degree Days 28 (Base 50)    
Moisture  
Dew Point 70 °F    
Average Humidity 81    
Maximum Humidity 100    
Minimum Humidity 59    
Precipitation  
Precipitation 0.02 in 0.14 in 4.37 in (1975)
Month to date precipitation 3.15  
Year to date precipitation 13.74  
Sea Level Pressure  
Sea Level Pressure 29.97 in    
Wind  
Wind Speed 8 mph (SE)    
Max Wind Speed 17 mph    
Max Gust Speed 22 mph    
Visibility 4 miles    
Events      
T = Trace of Precipitation, MM = Missing Value Source: NWS Daily Summary

Daily Weather History Graph

Daily Weather History Graph

Search for Another Location

Airport or City:

Trip Planner

Search our weather history database for the weather conditions in past years. The results will help you decide how hot, cold, wet, or windy it might be!

Date:

Astronomy

May. 23, 2013 Rise Set
Actual Time 6:23 AM CDT 8:21 PM CDT
Civil Twilight 5:56 AM CDT 8:49 PM CDT
Nautical Twilight 5:22 AM CDT 9:22 PM CDT
Astronomical Twilight 4:47 AM CDT 9:57 PM CDT
Moon 6:59 PM CDT (5/23) 5:03 AM CDT (5/23)
Length of Visible Light 14h 52m
Length of Day
13h 58m
Waxing Gibbous, 97% of the Moon is Illuminated
May 23
Waxing Gibbous
May 24
Full
May 31
Last Quarter
Jun 8
New
Jun 16
First Quarter

Hourly Weather History & Observations

Time (CDT) Temp. Heat Index Dew Point Humidity Pressure Visibility Wind Dir Wind Speed Gust Speed Precip Events Conditions
12:53 AM 71.1 °F - 64.9 °F 81% 29.93 in 9.0 mi ESE 5.8 mph - N/A   Clear
1:53 AM 73.0 °F - 69.1 °F 87% 29.92 in 6.0 mi SE 8.1 mph - N/A   Partly Cloudy
2:53 AM 72.0 °F - 70.0 °F 93% 29.91 in 5.0 mi SSE 6.9 mph - N/A   Clear
3:53 AM 72.0 °F - 70.0 °F 93% 29.90 in 3.0 mi SSE 9.2 mph - N/A   Partly Cloudy
4:17 AM 71.6 °F - 69.8 °F 94% 29.91 in 3.0 mi South 9.2 mph - N/A   Mostly Cloudy
4:27 AM 71.6 °F - 69.8 °F 94% 29.90 in 2.5 mi South 9.2 mph - N/A   Overcast
4:49 AM 71.6 °F - 71.6 °F 100% 29.91 in 2.5 mi South 9.2 mph - N/A   Overcast
4:53 AM 72.0 °F - 71.1 °F 97% 29.90 in 2.5 mi South 8.1 mph - N/A   Overcast
5:53 AM 72.0 °F - 70.0 °F 93% 29.92 in 2.5 mi SSE 4.6 mph - N/A   Overcast
6:01 AM 71.6 °F - 69.8 °F 94% 29.94 in 2.5 mi South 5.8 mph - N/A   Overcast
6:26 AM 71.6 °F - 69.8 °F 94% 29.94 in 1.8 mi South 5.8 mph - N/A   Mostly Cloudy
6:49 AM 71.6 °F - 69.8 °F 94% 29.95 in 1.2 mi SSE 5.8 mph - N/A   Scattered Clouds
6:53 AM 72.0 °F - 70.0 °F 93% 29.94 in 1.2 mi SSE 4.6 mph - N/A   Scattered Clouds
6:56 AM 71.6 °F - 69.8 °F 94% 29.95 in 1.2 mi SSE 4.6 mph - N/A   Mostly Cloudy
7:09 AM 71.6 °F - 71.6 °F 100% 29.96 in 1.0 mi South 4.6 mph - N/A   Mostly Cloudy
7:36 AM 73.4 °F - 71.6 °F 94% 29.97 in 2.0 mi SSE 9.2 mph - N/A   Overcast
7:53 AM 73.9 °F - 71.1 °F 91% 29.96 in 2.0 mi SE 5.8 mph - N/A   Overcast
8:13 AM 73.4 °F - 71.6 °F 94% 29.97 in 3.0 mi SSE 10.4 mph - 0.01 in   Overcast
8:26 AM 73.4 °F - 71.6 °F 94% 29.97 in 2.5 mi South 12.7 mph - 0.01 in   Mostly Cloudy
8:53 AM 75.9 °F - 71.1 °F 85% 29.96 in 2.5 mi South 12.7 mph - 0.01 in   Haze
9:03 AM 75.2 °F - 69.8 °F 83% 29.97 in 2.5 mi South 12.7 mph - N/A   Haze
9:19 AM 78.8 °F - 71.6 °F 78% 29.98 in 3.0 mi South 13.8 mph - N/A   Haze
9:53 AM 80.1 °F 83.2 °F 70.0 °F 71% 29.98 in 5.0 mi SSE 17.3 mph 21.9 mph N/A   Haze
10:00 AM 78.8 °F - 69.8 °F 74% 30.00 in 6.0 mi South 15.0 mph - N/A   Haze
10:29 AM 80.6 °F 83.9 °F 69.8 °F 70% 30.02 in 6.0 mi South 10.4 mph - N/A   Haze
10:53 AM 79.0 °F - 70.0 °F 74% 30.02 in 6.0 mi South 8.1 mph - N/A   Haze
11:53 AM 82.0 °F 85.9 °F 70.0 °F 67% 30.05 in 6.0 mi ESE 8.1 mph - N/A   Haze
12:24 PM 80.6 °F 83.9 °F 69.8 °F 70% 30.07 in 6.0 mi SE 11.5 mph - N/A   Haze
12:53 PM 80.1 °F 83.2 °F 70.0 °F 71% 30.06 in 6.0 mi ESE 8.1 mph - N/A   Haze
1:06 PM 82.4 °F 86.3 °F 69.8 °F 66% 30.07 in 6.0 mi SE 6.9 mph - N/A   Haze
1:53 PM 82.0 °F 85.9 °F 70.0 °F 67% 30.04 in 6.0 mi ESE 5.8 mph - N/A   Haze
2:53 PM 84.0 °F 89.0 °F 71.1 °F 65% 30.02 in 5.0 mi East 5.8 mph - N/A   Haze
3:53 PM 84.0 °F 88.4 °F 70.0 °F 63% 29.99 in 5.0 mi ESE 9.2 mph - N/A   Haze
4:53 PM 86.0 °F 90.7 °F 70.0 °F 59% 29.97 in 5.0 mi ESE 9.2 mph - N/A   Haze
5:53 PM 86.0 °F 90.7 °F 70.0 °F 59% 29.95 in 5.0 mi East 6.9 mph - 0.01 in   Haze
6:53 PM 84.0 °F 88.4 °F 70.0 °F 63% 29.94 in 6.0 mi East 9.2 mph - N/A   Haze
7:53 PM 82.0 °F 86.3 °F 71.1 °F 69% 29.97 in 7.0 mi ENE 6.9 mph - N/A   Clear
8:53 PM 80.1 °F 83.6 °F 71.1 °F 74% 30.00 in 8.0 mi ENE 4.6 mph - N/A   Clear
9:53 PM 79.0 °F - 71.1 °F 77% 30.04 in 7.0 mi Calm Calm - N/A   Partly Cloudy
10:53 PM 78.1 °F - 71.1 °F 79% 30.05 in 7.0 mi NE 3.5 mph - N/A   Partly Cloudy
11:53 PM 77.0 °F - 71.1 °F 82% 30.05 in 7.0 mi East 3.5 mph - N/A   Clear